Total_Precipitation_Accumulation
0.05 0.05 0.06 0.06 0.07 0.08 0.10 0.13 0.17 0.15 0.08 0.02 0.02 0.03 0.06 0.13 0.24 0.27 0.27 0.19 0.13 0.09 0.06 0.05 0.04 0.04 0.04 0.04 0.04 0.05 0.06 0.10 0.19 0.29 0.39 0.47 0.51 0.54
0.08 0.08 0.08 0.08 0.08 0.09 0.09 0.11 0.17 0.24 0.20 0.07 0.03 0.04 0.09 0.14 0.28 0.33 0.36 0.32 0.22 0.14 0.09 0.06 0.05 0.04 0.05 0.04 0.04 0.05 0.07 0.09 0.16 0.23 0.34 0.43 0.50 0.60
0.07 0.07 0.07 0.08 0.09 0.09 0.10 0.11 0.13 0.19 0.22 0.11 0.05 0.06 0.11 0.18 0.26 0.29 0.30 0.28 0.25 0.23 0.16 0.12 0.10 0.07 0.06 0.05 0.06 0.09 0.13 0.17 0.21 0.26 0.36 0.47 0.53 0.55
0.07 0.07 0.07 0.07 0.08 0.07 0.08 0.09 0.11 0.16 0.24 0.20 0.10 0.06 0.09 0.15 0.20 0.22 0.21 0.20 0.22 0.27 0.20 0.14 0.10 0.09 0.12 0.09 0.06 0.10 0.17 0.26 0.33 0.37 0.44 0.50 0.52 0.51
0.06 0.07 0.08 0.08 0.07 0.06 0.08 0.10 0.12 0.16 0.22 0.23 0.14 0.10 0.12 0.19 0.26 0.26 0.22 0.26 0.25 0.24 0.20 0.15 0.12 0.13 0.35 0.41 0.18 0.14 0.19 0.31 0.38 0.43 0.52 0.54 0.50 0.45
0.05 0.07 0.08 0.09 0.09 0.11 0.12 0.13 0.16 0.19 0.19 0.21 0.16 0.11 0.14 0.18 0.24 0.31 0.31 0.28 0.27 0.19 0.21 0.19 0.17 0.23 0.61 1.16 0.63 0.31 0.26 0.31 0.37 0.43 0.48 0.47 0.42 0.36
0.04 0.07 0.08 0.09 0.13 0.15 0.14 0.16 0.20 0.23 0.24 0.24 0.20 0.16 0.15 0.20 0.25 0.29 0.30 0.31 0.27 0.20 0.24 0.23 0.36 0.67 1.18 1.85 1.43 0.79 0.56 0.47 0.42 0.43 0.44 0.44 0.38 0.31
0.05 0.06 0.04 0.04 0.05 0.06 0.10 0.16 0.22 0.26 0.30 0.31 0.27 0.22 0.16 0.19 0.26 0.32 0.34 0.35 0.29 0.19 0.20 0.26 0.54 1.25 1.94 2.34 1.98 1.25 0.94 0.74 0.60 0.62 0.63 0.54 0.41 0.31
0.07 0.06 0.04 0.03 0.05 0.07 0.10 0.14 0.17 0.23 0.31 0.37 0.34 0.23 0.20 0.23 0.35 0.43 0.39 0.38 0.36 0.24 0.21 0.28 0.63 1.47 1.90 2.20 2.06 1.42 1.13 0.94 0.83 0.85 0.82 0.62 0.42 0.31
0.05 0.06 0.07 0.06 0.07 0.10 0.11 0.16 0.17 0.19 0.27 0.34 0.34 0.29 0.30 0.32 0.39 0.42 0.38 0.38 0.31 0.21 0.21 0.34 0.71 1.36 1.57 1.65 1.82 1.46 1.19 1.07 1.00 0.97 0.88 0.64 0.45 0.35
0.03 0.04 0.06 0.07 0.08 0.11 0.15 0.21 0.22 0.28 0.45 0.63 0.62 0.56 0.56 0.53 0.42 0.34 0.35 0.39 0.37 0.24 0.21 0.35 0.64 1.05 1.23 1.28 1.35 1.38 1.28 1.19 1.10 1.03 0.91 0.65 0.48 0.39
0.02 0.02 0.05 0.08 0.09 0.13 0.17 0.25 0.33 0.42 0.64 0.83 0.73 0.65 0.56 0.53 0.48 0.36 0.39 0.48 0.45 0.33 0.25 0.33 0.50 0.71 0.96 1.12 1.03 0.97 1.03 1.17 1.18 1.16 1.00 0.70 0.44 0.30
0.04 0.05 0.08 0.14 0.14 0.15 0.23 0.33 0.49 0.59 0.74 0.87 0.70 0.52 0.42 0.35 0.35 0.38 0.39 0.39 0.34 0.30 0.24 0.30 0.44 0.55 0.66 0.89 1.02 0.99 0.90 0.91 0.98 1.08 1.06 0.83 0.52 0.29
0.10 0.13 0.17 0.22 0.19 0.24 0.34 0.50 0.66 0.75 0.73 0.73 0.57 0.40 0.30 0.29 0.32 0.31 0.26 0.22 0.22 0.23 0.22 0.25 0.39 0.53 0.55 0.58 0.84 0.96 0.96 0.97 0.98 0.98 0.94 0.85 0.63 0.46
0.14 0.25 0.29 0.27 0.32 0.41 0.57 0.71 0.77 0.75 0.70 0.58 0.45 0.35 0.25 0.23 0.23 0.24 0.21 0.19 0.19 0.20 0.21 0.23 0.32 0.46 0.48 0.46 0.62 0.73 0.88 1.12 1.13 1.05 0.92 0.76 0.59 0.46
0.12 0.25 0.35 0.38 0.49 0.63 0.73 0.76 0.76 0.78 0.69 0.51 0.40 0.32 0.25 0.21 0.20 0.19 0.19 0.19 0.22 0.25 0.24 0.25 0.31 0.39 0.45 0.46 0.52 0.63 0.74 1.11 1.27 1.09 0.92 0.82 0.67 0.51
0.16 0.19 0.24 0.32 0.48 0.62 0.70 0.72 0.70 0.71 0.66 0.52 0.42 0.34 0.28 0.24 0.23 0.20 0.18 0.19 0.22 0.25 0.27 0.30 0.35 0.36 0.38 0.43 0.52 0.64 0.76 0.97 1.09 0.93 0.74 0.77 0.76 0.61
0.18 0.25 0.34 0.42 0.52 0.63 0.70 0.74 0.70 0.63 0.57 0.52 0.45 0.39 0.32 0.28 0.26 0.22 0.19 0.19 0.21 0.23 0.25 0.26 0.26 0.22 0.22 0.34 0.51 0.55 0.62 0.75 0.80 0.68 0.52 0.54 0.67 0.61
0.20 0.32 0.45 0.52 0.58 0.63 0.64 0.64 0.66 0.63 0.54 0.48 0.44 0.40 0.34 0.28 0.25 0.23 0.20 0.18 0.19 0.18 0.17 0.15 0.14 0.09 0.08 0.26 0.51 0.55 0.50 0.51 0.50 0.47 0.40 0.34 0.44 0.48
0.25 0.40 0.50 0.56 0.59 0.62 0.60 0.57 0.58 0.57 0.51 0.43 0.38 0.35 0.31 0.26 0.23 0.21 0.18 0.14 0.12 0.11 0.10 0.09 0.10 0.07 0.05 0.12 0.37 0.55 0.49 0.37 0.30 0.29 0.29 0.26 0.31 0.33
0.29 0.40 0.48 0.51 0.52 0.53 0.53 0.52 0.51 0.51 0.46 0.41 0.37 0.35 0.31 0.26 0.21 0.16 0.12 0.09 0.08 0.07 0.06 0.07 0.09 0.07 0.04 0.04 0.16 0.32 0.37 0.32 0.21 0.17 0.16 0.16 0.17 0.16
0.27 0.37 0.44 0.44 0.42 0.39 0.39 0.39 0.40 0.40 0.38 0.36 0.34 0.32 0.29 0.25 0.19 0.14 0.10 0.08 0.07 0.06 0.05 0.06 0.07 0.07 0.06 0.04 0.09 0.16 0.20 0.18 0.15 0.13 0.11 0.08 0.06 0.08
0.26 0.29 0.34 0.37 0.36 0.33 0.30 0.27 0.28 0.30 0.30 0.28 0.27 0.25 0.22 0.19 0.15 0.11 0.08 0.06 0.04 0.03 0.03 0.04 0.04 0.04 0.04 0.04 0.05 0.08 0.09 0.08 0.06 0.08 0.12 0.09 0.05 0.05